Satellite-Ground Cal/Val Region Overpasses Predictions

Prediction of Satellite NPP Overpassing Cal/Val Region: PacNW

Region Location: (Latitude: 10.00, Longitude: 139.50) to (Latitude: 22.70, Longitude: 165.60).

Table of predicted overpasses for the next 14.0 days since TLE Epoch: 2/12/2015
Interval Starting Time Starting Location Ending Time Ending Location
1 02/12/2015 15:17:32 ( 22.68, 157.14) 02/12/2015 15:21:07 ( 10.06, 154.15)
2 02/13/2015 02:26:37 ( 10.01, 164.69) 02/13/2015 02:30:13 ( 22.69, 161.68)
3 02/13/2015 14:58:30 ( 22.69, 161.89) 02/13/2015 15:02:06 ( 10.00, 158.89)
4 02/14/2015 03:49:04 ( 10.01, 144.07) 02/14/2015 03:52:40 ( 22.69, 141.06)
5 02/14/2015 14:40:41 ( 18.35, 165.59) 02/14/2015 14:43:03 ( 10.01, 163.64)
6 02/14/2015 16:20:57 ( 22.68, 141.27) 02/14/2015 16:23:02 ( 15.35, 139.50)
7 02/15/2015 03:30:02 ( 10.01, 148.82) 02/15/2015 03:33:38 ( 22.69, 145.82)
8 02/15/2015 16:01:55 ( 22.68, 146.03) 02/15/2015 16:05:31 ( 10.00, 143.02)
9 02/16/2015 03:11:00 ( 10.00, 153.58) 02/16/2015 03:14:36 ( 22.69, 150.57)
10 02/16/2015 15:42:52 ( 22.69, 150.79) 02/16/2015 15:46:28 ( 10.01, 147.78)
11 02/17/2015 02:51:57 ( 10.00, 158.34) 02/17/2015 02:55:33 ( 22.68, 155.33)
12 02/17/2015 15:23:50 ( 22.69, 155.54) 02/17/2015 15:27:26 ( 10.01, 152.54)
13 02/18/2015 02:32:55 ( 10.00, 163.09) 02/18/2015 02:36:31 ( 22.68, 160.08)
14 02/18/2015 15:04:47 ( 22.69, 160.30) 02/18/2015 15:08:23 ( 10.01, 157.29)
15 02/19/2015 02:16:36 ( 19.63, 165.59) 02/19/2015 02:17:28 ( 22.68, 164.84)
16 02/19/2015 03:55:22 ( 10.01, 142.47) 02/19/2015 03:58:55 ( 22.52, 139.51)
17 02/19/2015 14:45:45 ( 22.69, 165.05) 02/19/2015 14:49:21 ( 10.01, 162.05)
18 02/19/2015 16:27:15 ( 22.68, 139.68) 02/19/2015 16:27:27 ( 21.98, 139.50)
19 02/20/2015 03:36:20 ( 10.01, 147.23) 02/20/2015 03:39:56 ( 22.69, 144.22)
20 02/20/2015 16:08:12 ( 22.68, 144.43) 02/20/2015 16:11:48 ( 10.00, 141.43)
21 02/21/2015 03:17:17 ( 10.01, 151.98) 02/21/2015 03:20:53 ( 22.69, 148.97)
22 02/21/2015 15:49:10 ( 22.68, 149.19) 02/21/2015 15:52:46 ( 10.00, 146.18)
23
